Aberdeen, SD

4:49 PM CST on February 24, 2017 (GMT -0600)
Aberdeen Regional

Weather History for KABR - March, 2013

Change the Weather History Date:

Saturday, March 2, 2013

  Actual Average Record
Temperature  
Mean Temperature 14 °F 24 °F  
Max Temperature 28 °F 33 °F 72 °F (1905)
Min Temperature 0 °F 14 °F -21 °F (1913)
Degree Days  
Heating Degree Days 51 41  
Month to date heating degree days 103 83  
Since 1 July heating degree days 6517 6546  
Cooling Degree Days 0 0  
Month to date cooling degree days 0 0  
Year to date cooling degree days 0 0  
Moisture  
Dew Point 9 °F    
Average Humidity 80    
Maximum Humidity 91    
Minimum Humidity 69    
Precipitation  
Precipitation 0.00 in 0.03 in 0.90 in (1904)
Month to date precipitation 0.00 0.06  
Year to date precipitation 1.84 1.08  
Snow  
Snow 0.00 in - - ()
Month to date snowfall 0.0  
Since 1 July snowfall 39.1  
Snow Depth 8.00 in    
Sea Level Pressure  
Sea Level Pressure 30.25 in    
Wind  
Wind Speed 9 mph (South)    
Max Wind Speed 22 mph    
Max Gust Speed 24 mph    
Visibility 6 miles    
Events Fog    
T = Trace of Precipitation, MM = Missing Value Source: NWS Daily Summary

Daily Weather History Graph

Daily Weather History Graph

Search for Another Location

Airport or City:

Trip Planner

Search our weather history database for the weather conditions in past years. The results will help you decide how hot, cold, wet, or windy it might be!

Date:

Astronomy

Mar. 02, 2013 Rise Set
Actual Time 7:09 AM CST 6:22 PM CST
Civil Twilight 6:40 AM CST 6:52 PM CST
Nautical Twilight 6:05 AM CST 7:26 PM CST
Astronomical Twilight 5:31 AM CST 8:00 PM CST
Moon No Moon Rise 9:21 AM CST (3/2)
Length of Visible Light 12h 12m
Length of Day
11h 12m
Waning Gibbous, 74% of the Moon is Illuminated
Mar 2
Waning Gibbous
Mar 4
Last Quarter
Mar 11
New
Mar 19
First Quarter
Mar 27
Full

Hourly Weather History & Observations

Time (CST) Temp. Windchill Dew Point Humidity Pressure Visibility Wind Dir Wind Speed Gust Speed Precip Events Conditions
12:01 AM 1.4 °F - -2.2 °F 85% 30.33 in 1.2 mi Calm Calm - N/A   Partly Cloudy
12:04 AM 1.4 °F - -2.2 °F 85% 30.33 in 0.8 mi Calm Calm - N/A   Mist
12:31 AM -0.4 °F -8.3 °F -2.2 °F 92% 30.33 in 0.2 mi SW 3.5 mph - N/A Fog Light Freezing Fog
12:53 AM -0.0 °F - -2.0 °F 91% 30.43 in 0.2 mi Calm Calm - N/A Fog Light Freezing Fog
1:53 AM 1.0 °F - -2.0 °F 87% 30.41 in 0.2 mi Calm Calm - N/A Fog Light Freezing Fog
2:04 AM 1.4 °F -6.2 °F -2.2 °F 85% 30.31 in 0.2 mi SSW 3.5 mph - N/A Fog Light Freezing Fog
2:46 AM 3.2 °F - -0.4 °F 85% 30.30 in 1.0 mi Calm Calm - N/A   Mist
2:50 AM 3.2 °F - -0.4 °F 85% 30.30 in 2.0 mi Calm Calm - N/A   Overcast
2:53 AM 3.0 °F -4.4 °F -0.0 °F 87% 30.39 in 1.5 mi SW 3.5 mph - N/A   Overcast
2:57 AM 3.2 °F -4.2 °F -0.4 °F 85% 30.31 in 0.8 mi WSW 3.5 mph - N/A   Mist
3:16 AM 3.2 °F -6.2 °F 1.4 °F 92% 30.30 in 0.2 mi SSW 4.6 mph - N/A Fog Light Freezing Fog
3:30 AM 5.0 °F -4.1 °F 1.4 °F 85% 30.30 in 1.0 mi SSW 4.6 mph - N/A   Mist
3:34 AM 5.0 °F -4.1 °F 1.4 °F 85% 30.30 in 2.0 mi SSW 4.6 mph - N/A   Overcast
3:46 AM 5.0 °F -4.1 °F 1.4 °F 85% 30.30 in 3.0 mi SSW 4.6 mph - N/A   Overcast
3:53 AM 5.0 °F -2.1 °F 1.0 °F 84% 30.37 in 5.0 mi South 3.5 mph - N/A   Overcast
4:53 AM 7.0 °F -4.5 °F 3.0 °F 84% 30.34 in 8.0 mi SSE 6.9 mph - N/A   Overcast
5:02 AM 6.8 °F -5.9 °F 3.2 °F 85% 30.25 in 8.0 mi SSE 8.1 mph - N/A   Overcast
5:53 AM 9.0 °F -2.2 °F 6.1 °F 88% 30.31 in 9.0 mi South 6.9 mph - N/A   Overcast
6:53 AM 12.0 °F -0.4 °F 8.1 °F 84% 30.30 in 8.0 mi South 9.2 mph - N/A   Overcast
7:53 AM 15.1 °F 2.5 °F 10.9 °F 84% 30.29 in 9.0 mi SSE 10.4 mph - N/A   Overcast
8:53 AM 17.1 °F 3.6 °F 12.9 °F 84% 30.29 in 9.0 mi SSE 12.7 mph - N/A   Overcast
9:53 AM 19.0 °F 4.0 °F 15.1 °F 85% 30.27 in 9.0 mi SSE 17.3 mph - N/A   Overcast
10:53 AM 21.0 °F 7.1 °F 16.0 °F 81% 30.26 in 10.0 mi South 16.1 mph - N/A   Overcast
11:53 AM 21.9 °F 8.7 °F 18.0 °F 85% 30.25 in 10.0 mi SSE 15.0 mph - N/A   Overcast
12:53 PM 25.0 °F 11.7 °F 19.0 °F 78% 30.22 in 10.0 mi SSE 17.3 mph - N/A   Mostly Cloudy
1:53 PM 27.0 °F 14.7 °F 19.0 °F 72% 30.19 in 10.0 mi South 16.1 mph - N/A   Clear
2:53 PM 27.0 °F 15.6 °F 19.9 °F 75% 30.17 in 10.0 mi South 13.8 mph - N/A   Clear
3:53 PM 28.0 °F 15.7 °F 19.9 °F 72% 30.15 in 10.0 mi South 17.3 mph - N/A   Clear
4:53 PM 28.0 °F 17.0 °F 19.9 °F 72% 30.14 in 10.0 mi South 13.8 mph - N/A   Clear
5:53 PM 26.1 °F 15.6 °F 19.0 °F 75% 30.13 in 10.0 mi South 11.5 mph - N/A   Clear
6:53 PM 24.8 °F 15.3 °F 17.6 °F 74% 30.06 in 10.0 mi South 9.2 mph - N/A   Clear
7:53 PM 23.0 °F 18.4 °F 17.1 °F 78% 30.13 in 10.0 mi South 3.5 mph - N/A   Clear
8:53 PM 21.0 °F - 16.0 °F 81% 30.12 in 10.0 mi Calm Calm - N/A   Scattered Clouds
9:53 PM 21.0 °F 16.2 °F 16.0 °F 81% 30.11 in 10.0 mi East 3.5 mph - N/A   Overcast
10:53 PM 21.0 °F - 16.0 °F 81% 30.08 in 10.0 mi Calm Calm - N/A   Mostly Cloudy
11:53 PM 18.0 °F 11.1 °F 14.0 °F 84% 30.07 in 10.0 mi SE 4.6 mph - N/A   Clear